Regional Weather Roundup
Issued by NWS

Home | Current Version | Previous Version | Text Only | Print | Product List | Glossary On
Versions: 1 2 3 4 5 6 7 8 9 10 11 12 13 14 15 16 17 18 19 20 21 22 23 24 25 26 27 28 29 30 31 32 33 34 35 36 37 38 39 40 41 42 43 44 45 46 47 48 49 50
000
ASUS43 KDMX 281907
RWRIA

WEATHER ROUNDUP FOR IOWA
NATIONAL WEATHER SERVICE DES MOINES IA
200 PM CDT FRI AUG 28 2015

NOTE: "FAIR" INDICATES FEW OR NO CLOUDS BELOW 12,000 FEET WITH NO
SIGNIFICANT WEATHER AND/OR OBSTRUCTIONS TO VISIBILITY.

* - THESE STATIONS ARE NOT NWS STATIONS...THUS NOT UNDER NWS
QUALITY CONTROL.  THEY ALSO DO NOT REPORT WEATHER SUCH
AS PRECIPITATION OR FOG.

IAZ001>003-012>014-020>022-031>034-043>046-282000-
   NORTHWEST IOWA

CITY           SKY/WX    TMP DP  RH WIND       PRES   REMARKS
CARROLL *      PTSUNNY   70  70 100 S9G15     29.83F FOG
CHEROKEE *     CLOUDY    64  64 100 NE5       29.86S FOG
DENISON *      CLOUDY    72  70  94 SW6       29.81S
LE MARS *      CLOUDY    66  63  88 NE14G23   29.88R
ORANGE CITY *  CLOUDY    64  61  88 E16G22    29.88F
SHELDON *      CLOUDY    63  61  94 E20G26    29.89F FOG
SIOUX CITY     CLOUDY    70  64  81 N13       29.85R
SPENCER        CLOUDY    62  59  90 E18       29.92S FOG
STORM LAKE *   FOG       64  64 100 E9G15     29.87S VSB 3/4
$$

IAZ055>058-069>071-079>083-090>094-282000-
   SOUTHWEST IOWA

CITY           SKY/WX    TMP DP  RH WIND       PRES   REMARKS
ATLANTIC *     CLOUDY    73  70  88 S13       29.82F
AUDUBON *      PTSUNNY   72  66  83 S10G17    29.84F
CLARINDA *     CLOUDY    77  68  73 S12G22    29.88S
COUNCIL BLFS * PTSUNNY   77  72  83 SW13      29.83F
CRESTON *      PTSUNNY   75  70  83 S16G25    29.89F
HARLAN  *      CLOUDY    72 -36   1 S12G20    29.86S
LAMONI         PTSUNNY   77  67  71 S13G30    29.91F
RED OAK *      CLOUDY    75  70  83 S9        29.85F
SHENANDOAH *   CLOUDY    77  70  78 S9        29.85F
$$

IAZ047>049-059>061-072>074-084-282000-
   CENTRAL IOWA

CITY           SKY/WX    TMP DP  RH WIND       PRES   REMARKS
AMES           CLOUDY    65  65 100 S13       29.88S
ANKENY *       LGT RAIN  68  66  94 S13       29.87F
CHARITON *     SUNNY     73  66  78 S17       29.91F
DES MOINES     CLOUDY    71  65  81 S14       29.87F
GRINNELL*      CLOUDY    66  63  88 SE17      29.92F
KNOXVILLE *    MOSUNNY   72  64  78 S14G22    29.90F
MARSHALLTOWN   LGT RAIN  64  62  93 E13       29.91F
PELLA *        CLOUDY    70  70 100 SE14G20   29.92F
PERRY *        CLOUDY    72  68  88 S12G17    29.85F
$$

IAZ004>006-015-016-023>025-035-036-282000-
   NORTH CENTRAL IOWA

CITY           SKY/WX    TMP DP  RH WIND       PRES   REMARKS
ALGONA *       PTSUNNY   61  59  94 E12G18    29.94F FOG
CLARION *      CLOUDY    61  59  94 SE15G23   29.91F FOG
ESTHERVILLE    LGT RAIN  60  59  96 E17G26    29.95S FOG
FORT DODGE *   CLOUDY    61  57  88 E17       29.89F
MASON CITY     RAIN      59  58  96 NE10      30.01F FOG
FOREST CITY *  HVY RAIN  59  59 100 E12G18    29.99S
IOWA FALLS *   RAIN      63  61  94 E16G22    29.91F
$$

IAZ007>011-017>019-026>030-037>042-050>054-066-282000-
   NORTHEAST IOWA

CITY           SKY/WX    TMP DP  RH WIND       PRES   REMARKS
CEDAR RAPIDS   CLOUDY    66  64  93 E20G28    29.97F
CHARLES CITY * CLOUDY    61  61 100 E12       30.01S
CLINTON *      CLOUDY    66  63  88 SE10      30.09F
DECORAH *      LGT RAIN  59  57  94 E13       30.00S
DUBUQUE        CLOUDY    63  61  93 E12       30.06F FOG
MONTICELLO *   PTSUNNY   64  63  94 E8        30.04F
OELWEIN *      LGT RAIN  63  61  94 SE14G22   29.99F
WATERLOO       LGT RAIN  62  60  93 S14       29.99R FOG
$$

IAZ064-065-067-068-078-282000-
   EAST CENTRAL IOWA

CITY           SKY/WX    TMP DP  RH WIND       PRES   REMARKS
DAVENPORT      CLOUDY    67  62  84 SE9       30.07F
IOWA CITY      CLOUDY    68  62  81 SE10      30.03F
MT. PLEASANT * CLOUDY    72  59  64 SE12G17   30.03F
MUSCATINE *    MOSUNNY   72  61  68 SE9       30.04F
QUAD CITIES    CLOUDY    70  62  76 E10       30.06F
$$

IAZ062-063-075>077-085>089-095>099-282000-
   SOUTHEAST IOWA

CITY           SKY/WX    TMP DP  RH WIND       PRES   REMARKS
BURLINGTON     CLOUDY    70  63  78 S9        30.05F
FAIRFIELD *    MOSUNNY   70  61  73 SE18G29   29.98F
FORT MADISON * SUNNY     70  64  83 SE8       30.05F
KEOKUK *       MOSUNNY   72  63  73 SE9G15    30.03F
OSKALOOSA *      N/A     73  63  68 S14G20    29.96F
CENTERVILLE *  SUNNY     75  66  73 S14       29.97S
OTTUMWA        CLOUDY    72  63  73 S14G24    29.95F
WASHINGTON *     N/A    N/A N/A N/A MISG        N/A
$$

ABBREVIATIONS USED IN REMARKS
   TC - TEMPERATURES IN CELSIUS
  WCI - WIND CHILL INDEX
   HX - HEAT INDEX
  VSB - VISIBILITY
$$




USA.gov is the U.S. government's official web portal to all federal, state and local government web resources and services.